www.pogodaiklimat.ru

Погода и климат >> Архив погоды >> Гана >> Такоради


ПОГОДА Такоради

  • Прогноз погоды Такоради
  • Монитор погоды Такоради

АРХИВ ПОГОДЫ Такоради

Время (UTC), дата Ветер
(напр.,м/с)
 
Видим.   Явления Облачность Т
(С)
Тd
(С)
f
(%)
Тe
(С)
Тes
(С)
Комфортность P
(гПа)
Po
(гПа)
Тmin
(С)
Tmax
(С)
R
(мм)
R24
(мм)
S
(см)
15 11.04 ЮЗ 5 12 км гроза без осадков 9/6 360 м
[Cb cap Cs]
+29.4 +26.4 84 +45 +47 опасность
перегрева
1007.9 1006.9
18 11.04 ЮВ 1 7000 м гроза, ливневой дождь {снег} 9/6 270 м
[Cb cap Ac As]
+23.0 +22.3 96 +31 +31 очень
душно
1009.5 1008.5 +31.7 36
21 11.04 штиль 0 10 км в посл. час дождь 9/4 300 м
[Sc Ac trans]
+23.7 +22.7 94 +31 +31 очень
душно
1011.2 1010.2
12 12.04 ЮЗ 5 15 км 8/1 360 м
[Cu hum Ac trans]
+30.2 +25.5 76 +44 +50 опасность
перегрева
1009.7 1008.7
15 12.04 ЮЗ 4 15 км 9/1 360 м
[Cu med, cong Ac trans]
+29.2 +25.4 80 +43 +46 опасность
перегрева
1008.0 1007.0
18 12.04 ЮЗ 3 15 км 8/1 360 м
[Cu Sc Ac lent Cs]
+28.6 +25.8 85 +43 +43 опасность
перегрева
1008.3 1007.3 +30.2
21 12.04 штиль 0 12 км 4/0
[Ac trans Ci sp]
+27.5 +25.9 91 +41 +41 опасность
перегрева
1011.4 1010.4
00 13.04 СЗ 1 12 км 8/0
[Ac trans]
+27.1 +25.7 92 +40 +40 очень
душно
1011.1 1010.1
06 13.04 штиль 0 5000 м дымка 5/4 300 м
[Sc Ac trans Cs]
+25.6 +25.1 97 +37 +37 очень
душно
1010.0 1009.0 +25.0
09 13.04 СЗ 3 15 км 6/3 400 м
[Cu med, cong Ac trans Ci sp]
+29.4 +24.5 75 +42 +46 опасность
перегрева
1012.4 1011.4
12 13.04 ЮЗ 4 18 км 5/4 420 м
[Cu med, cong Ci sp]
+31.4 +26.4 75 +48 +56 опасность
перегрева
1011.2 1010.2
21 13.04 штиль 0 14 км 8/5 360 м
[Sc Ac trans Cs]
+28.0 +26.6 92 +43 +43 опасность
перегрева
1011.5 1010.5
03 14.04 штиль 0 12 км ясно +26.6 +25.7 95 +39 +39 очень
душно
1009.6 1008.6
06 14.04 штиль 0 12 км 8/3 300 м
[Cu Sc Ac trans]
+26.5 +25.5 94 +39 +39 очень
душно
1011.0 1010.0 +25.1
09 14.04 штиль 0 12 км 9/1 330 м
[Cu med, cong Ac trans]
+29.4 +27.0 87 +46 +52 опасность
перегрева
1012.5 1011.5
12 14.04 ЮЗ 2 15 км 6/4 420 м
[Cu med, cong Ac trans]
+31.3 +28.1 83 +52 +62 опасность
перегрева
1011.7 1010.7
15 14.04 ЮЗ 7 20 км 5/3 400 м
[Cb cap Ac trans Ci sp]
+31.1 +27.0 79 +49 +51 опасность
перегрева
1009.1 1008.1
18 14.04 ЮЗ 4 12 км 8/4 330 м
[Cb cap Ac lent Cs]
+29.5 +26.7 85 +46 +46 опасность
перегрева
1010.2 1009.2 +31.4
09 15.04 СЗ 3 12 км 5/3 400 м
[Cu med, cong Ci sp]
+28.0 +26.0 89 +42 +48 опасность
перегрева
1012.2 1011.2
12 15.04 В 1 15 км 6/3 420 м
[Cu med, cong Ac trans Ci sp]
+31.1 +25.7 73 +46 +60 опасность
перегрева
1011.1 1010.1
15 15.04 В 4 15 км 6/3 420 м
[Cu med, cong Ac lent Cs]
+31.9 +24.0 63 +44 +48 опасность
перегрева
1008.8 1007.8
18 15.04 В 3 15 км 5/3 400 м
[Cu med, cong Ci sp]
+29.3 +25.7 81 +43 +43 опасность
перегрева
1009.4 1008.4 +31.9
21 15.04 штиль 0 10 км 1/0
[Ci sp]
+27.5 +25.8 90 +41 +41 опасность
перегрева
1011.5 1010.5
03 16.04 штиль 0 5000 м дымка 1/1 330 м
[Sc]
+26.1 +25.2 95 +38 +38 очень
душно
1010.0 1009.0
09 16.04 В 1 12 км 5/3 360 м
[Cb cap Ac trans]
+30.4 +26.6 80 +47 +54 опасность
перегрева
1013.0 1012.0
12 16.04 ЮВ 1 15 км 3/3 420 м
[Cb cap]
+32.5 +27.0 73 +51 +70 опасность
перегрева
1012.0 1011.0
15 16.04 ЮЗ 3 15 км 6/3 420 м
[Cu med, cong Ci sp]
+31.5 +27.0 77 +49 +55 опасность
перегрева
1009.5 1008.5
18 16.04 ЮЗ 4 15 км 8/3 360 м
[Cu Sc Cs]
+29.5 +26.1 82 +45 +45 опасность
перегрева
1009.3 1008.3 +32.5
21 16.04 штиль 0 15 км гроза без осадков 1/1 330 м
[Cb cap]
+28.5 +26.3 88 +43 +43 опасность
перегрева
1010.8 1009.8
00 17.04 штиль 0 10 км {гроза} ясно +27.7 +26.1 91 +42 +42 опасность
перегрева
1010.8 1009.8
06 17.04 З 4 10 км 5/3 330 м
[Cu hum Ci sp]
+26.0 +25.3 96 +38 +38 очень
душно
1009.2 1008.2 +25.5
12 17.04 Ю 6 15 км 6/3 420 м
[Cu med, cong Cs]
+31.6 +27.5 79 +51 +56 опасность
перегрева
1011.0 1010.0
15 17.04 ЮЗ 6 15 км 4/3 420 м
[Cu med, cong Ci sp]
+31.0 +27.1 80 +49 +52 опасность
перегрева
1008.7 1007.7
21 17.04 штиль 0 12 км 8/1 360 м
[Sc Cs]
+28.4 +26.6 90 +44 +44 опасность
перегрева
1011.3 1010.3
00 18.04 З 1 12 км 9/3 330 м
[Sc Cs]
+27.5 +26.1 92 +41 +41 опасность
перегрева
1011.3 1010.3
06 18.04 штиль 0 8000 м дымка 5/0
[Ci sp]
+26.4 +25.5 95 +39 +39 очень
душно
1009.6 1008.6 +25.7
09 18.04 З 4 16 км 4/4 360 м
[Cu Sc]
+30.0 +26.8 83 +47 +51 опасность
перегрева
1011.1 1010.1
12 18.04 ЮЗ 5 20 км 5/4 450 м
[Cu med, cong Ci sp]
+32.1 +26.9 74 +50 +56 опасность
перегрева
1010.3 1009.3

 

Местоположение метеостанции Такоради (Гана): широта 4.88 долгота -1.77 высота над уровнем моря 9 м.

В архиве по умолчанию представлена погода Такоради за последнюю неделю. Архивные данные за месяц целиком и за предыдущие месяцы, начиная с января 2011 года, Вы можете получить, выбрав интересующий диапазон дат из раскрывающегося списка и нажав кнопку "Ввод!".


*Определитесь, кто Вы:
робот инопланетянин человек

Внимание! Время в таблицах - всемирное. Для получения местного времени необходимо прибавить поправку, которая равна 1 ч.

Смотрите также архив погоды в соседних городах и на ближайших метеорологических станциях:

Погода в Аксиме (Гана) (51 км)
Погода в Солтпонде (Гана) (85 км)
Погода в Аким Ода (Гана) (146 км)
Погода в Сефви Беквай (Гана) (159 км)
Погода в Адиаке (Кот-д'Ивуар) (176 км)
Погода в Аккра (Гана) (194 км)
Погода в Кумаси (Гана) (206 км)
Погода в Тема (Гана) (213 км)
Погода в Кофоридуа (Гана) (215 км)
Погода в Абетифи (Гана) (229 км)

Пояснения к столбцам:

Ветер - указаны скорость ветра в м/с - средняя за 10 мин, порывы в срок и между сроками (в фигурных скобках) и направление, откуда дует ветер: С - северный, СВ - северо-восточный, В - восточный, ЮВ - юго-восточный, Ю - южный, ЮЗ - юго-западный, З - западный, СЗ - северо-западный.
Видимость - горизонтальная дальность видимости в метрах или километрах. При видимости от 1 до 10 км при отсутствии осадков обычно наблюдается дымка, при ухудшении видимости до 1 км и менее - туман. В сухую погоду видимость может ухудшаться дымом, пылью или мглою.
Явления - указаны атмосферные явления, наблюдавшиеся в срок или в последний час перед сроком; фигурными скобками обозначены явления, наблюдавшиеся между сроками (за 1-3 часа до срока); квадратными скобками обозначены град или гололедные отложения с указанием их диаметра в мм.
Облачность - указаны через наклонную черту общая и нижняя облачность в баллах и высота нижней границы облаков в метрах; квадратными скобками обозначены формы облаков: Ci - перистые, Cs - перисто-слоистые, Cc - перисто-кучевые, Ac - высококучевые, As - высокослоистые, Sc - слоисто-кучевые, Ns - слоисто-дождевые, Cu - кучевые, Cb - кучево-дождевые. Подробнее классификацию облаков см. в Атласе облаков (PDF).
T - Температура воздуха - температура, измеренная на высоте 2 м над землей.
Td - Температура точки росы - температура, при понижении до которой содержащийся в воздухе водяной пар достигнет насыщения.
f - Относительная влажность воздуха - влажноcть воздуха, измеренная на высоте 2 м над землей.
Te - Эффективная температура - температура, которую ощущает одетый по сезону человек в тени. Характеристика душности погоды. При расчете учитывается влияние влажности воздуха и скорости ветра на теплоощущения человека.
Tes - Эффективная температура на солнце - температура, которую ощущает человек, с поправкой на солнечный нагрев. Характеристика знойности погоды. Зависит от высоты солнца над горизонтом, облачности и скорости ветра. Ночью, в пасмурную погоду, а также при ветре 12 м/с и более поправка равна нулю.
P - Атмосферное давление - приведенное к уровню моря атмосферное давление.
Po - Атмосферное давление - измеренное на уровне метеостанции атмосферное давление.
Tmin - Минимальная температура - минимум температуры воздуха на высоте 2 м над землей.
Tmax - Максимальная температура - максимум температуры воздуха на высоте 2 м над землей.
R - Количество осадков - Количество выпавших осадков за период времени, мм. При наведении курсора мыши на число - период времени, за который выпало указанное количество осадков.
R24 - Количество осадков - Количество выпавших осадков за 24 часа, мм.
S - Снежный покров - Высота снежного покрова, см. При наведении курсора мыши на число - состояние снежного покрова и степень покрытия местности в баллах.